Date,TemperatureHighF,TemperatureAvgF,TemperatureLowF,DewpointHighF,DewpointAvgF,DewpointLowF,HumidityHigh,HumidityAvg,HumidityLow,PressureMaxIn,PressureMinIn,WindSpeedMaxMPH,WindSpeedAvgMPH,GustSpeedMaxMPH,PrecipitationSumIn
2013-7-1,76.1,69.4,64.2,64.0,59.7,57.0,83,72,57,30.05,29.77,14,4,0,0.00
2013-7-2,76.8,71.0,64.4,64.0,58.1,54.0,87,65,48,30.08,30.04,19,4,0,0.02
2013-7-3,78.6,70.5,62.4,61.0,56.9,53.0,86,64,47,30.05,29.97,13,4,0,0.00
2013-7-4,78.7,71.7,62.3,65.0,60.7,55.0,85,69,53,29.99,29.94,16,5,0,0.00
2013-7-5,79.1,72.3,67.6,67.0,65.2,63.0,91,79,59,29.96,29.91,17,7,0,0.00
2013-7-6,81.1,74.8,69.3,70.0,67.1,64.0,92,78,56,29.95,29.88,21,10,0,0.00
2013-7-7,83.8,77.3,71.6,70.0,67.1,61.0,92,72,54,30.02,29.94,19,11,0,0.00
2013-7-8,84.3,77.4,71.3,70.0,68.3,65.0,92,75,56,30.05,30.00,20,11,0,0.00
2013-7-9,83.1,77.2,70.7,72.0,70.5,69.0,93,80,67,30.04,29.92,26,14,0,0.00
2013-7-10,81.5,75.3,71.7,71.0,68.7,62.0,91,81,55,29.93,29.77,22,13,0,0.05
2013-7-11,82.4,76.5,72.0,71.0,68.3,65.0,93,77,57,29.85,29.74,22,10,0,0.03
2013-7-12,84.8,78.3,71.5,70.0,64.6,57.0,92,65,44,29.93,29.86,18,8,0,0.00
2013-7-13,81.5,76.2,70.0,69.0,67.0,64.0,94,74,62,29.96,29.91,18,8,0,0.00
2013-7-14,83.7,77.1,69.7,70.0,62.7,54.0,94,64,41,29.95,29.90,16,7,0,0.00
2013-7-15,82.2,75.8,68.5,69.0,64.8,55.0,92,70,49,29.95,29.90,21,8,0,0.00
2013-7-16,80.5,75.2,70.0,67.0,64.8,61.0,84,71,53,30.01,29.93,23,11,0,0.00
2013-7-17,80.0,74.3,71.6,68.0,65.1,60.0,85,73,53,30.03,29.98,23,12,0,0.00
2013-7-18,78.5,74.1,70.6,68.0,65.5,63.0,84,75,64,30.07,30.01,23,10,0,0.00
2013-7-19,80.2,74.6,69.3,68.0,64.4,60.0,85,72,50,30.07,29.96,23,8,0,0.00
2013-7-20,82.5,76.2,70.6,69.0,65.4,60.0,91,71,50,29.96,29.87,19,9,0,0.00
2013-7-21,82.8,75.5,68.0,69.0,65.9,60.0,94,74,47,29.99,29.88,34,10,0,0.00
2013-7-22,78.6,73.5,69.6,65.0,57.8,51.0,79,59,39,29.99,29.94,21,11,0,0.00
2013-7-23,83.3,75.6,66.5,62.0,57.7,53.0,77,56,38,29.95,29.89,20,8,0,0.00
2013-7-24,83.6,73.7,67.5,62.0,58.3,55.0,69,59,41,29.95,29.90,4,1,0,0.00
2013-7-29,88.4,81.6,77.2,71.0,61.4,48.0,76,53,26,30.08,29.97,11,4,0,0.00
2013-7-30,91.6,82.3,71.1,68.0,58.5,47.0,63,45,30,29.98,29.79,9,3,0,0.00
2013-7-31,83.6,79.1,74.0,72.0,68.0,57.0,85,69,40,29.87,29.80,18,8,0,0.00